SCP
0 0 0 0 0 -0 -0 -0 0 0 0 -0 0 0 0 0 0 0 0 -0 -0 -0 -0 -0 -0 -0 0 -0 -0 -0 0 -0 -0 -0 -0 -0 -0 -0 -0 -0 -0 -0 -0 -0 -0 -0 -0 -0 -0
-0 0 0 0 0 -0 -0 -0 -0 0 0 0 0 0 -0 -0 0 -0 0 -0 -0 -0 -0 0 -0 -0 -0 -0 -0 -0 -0 -0 -0 -0 -0 -0 -0 -0 -0 -0 -0 0 0 -0 -0 0 0 -0 -0
0 0 0 0 0 -0 0 0 0 0 0 0 0 0 -0 -0 0 0 0 -0 -0 -0 -0 0 -0 -0 -0 -0 -0 -0 -0 -0 -0 -0 0 -0 -0 -0 -0 -0 -0 -0 -0 0 -0 0 0 -0 -0
0 -0 0 0 -0 0 0 -0 0 0 0 0 0 0 0 0 0 -0 -0 -0 -0 -0 -0 -0 -0 -0 -0 -0 -0 -0 -0 -0 -0 -0 0 -0 -0 -0 -0 0 0 0 0 -0 0 0 0 0 0
0 0 0 0 0 0 -0 0 0 0 0 0 0 0 0 -0 -0 -0 -0 -0 -0 -0 0 -0 -0 -0 -0 -0 -0 -0 -0 -0 -0 -0 0 0 0 -0 -0 0 -0 0 -0 0 0 -0 -0 0 0
0 0 0 0 0 0 0 0 0 0 0 0 0 0 0 -0 -0 -0 -0 -0 -0 -0 0 0 -0 -0 -0 -0 -0 -0 -0 -0 -0 0 0 0 0 0 -0 0 -0 -0 0 0 0 -0 -0 -0 -0
0 0 -0 0 0 0 0 0 0 0 0 0 0 0 0 0 -0 -0 -0 -0 -0 -0 -0 -0 -0 -0 -0 -0 -0 -0 -0 -0 -0 0 0 -0 -0 0 0 0 -0 0 -0 -0 -0 -0 -0 -0 0
0 0 0 0 0 -0 0 0 0 0 0 0 0 0 0 0 -0 -0 -0 -0 0 0 0 0 0 0 -0 0 -0 -0 -0 -0 0 0 0 -0 -0 -0 0 -0 -0 -0 -0 0 0 0 0 0 0
0 0 0 0 0 0 0 -0 0 0 0 0 0 0 0 -0 -0 -0 -0 -0 0 0 0 0 0 0 -0 0 0 -0 -0 -0 -0 0 0 0 -0 -0 -0 0 -0 -0 -0 -0 -0 -0 0 0 0
-0 -0 -0 0 0 0 0 0 0 0 0 0 0 -0 -0 -0 -0 -0 -0 -0 -0 0 0 0 0 -0 -0 0 0 0 0 0 0 0 0 -0 -0 -0 -0 -0 -0 -0 -0 -0 -0 -0 0 0 0
-0 -0 -0 0 0 0 0 -0 0 0 0 0 -0 -0 -0 -0 -0 -0 -0 -0 -0 0 0 -0 -0 -0 -0 0 0 0 0 0 0 0 -0 -0 -0 -0 -0 -0 -0 -0 -0 -0 -0 -0 -0 0 0
-0 -0 0 -0 0 0 -0 -0 0 -0 0 0 -0 -0 -0 -0 -0 -0 -0 -0 -0 -0 0 0 -0 -0 -0 0 0 0 0 0 0 0 0 0 0 -0 -0 -0 -0 -0 -0 -0 -0 -0 0 0 0
-0 -0 -0 0 0 0 -0 -0 -0 -0 0 -0 -0 -0 -0 -0 -0 -0 -0 -0 -0 -0 -0 0 -0 -0 -0 0 0 0 0 0 0 0 0 0 0 -0 -0 0 0 0 -0 -0 -0 -0 -0 0 0
-0 -0 0 -0 0 0 0 0 -0 -0 -0 -0 -0 -0 -0 -0 -0 -0 -0 -0 -0 -0 -0 -0 -0 -0 -0 -0 -0 0 0 -0 0 -0 0 0 0 0 0 0 0 0 0 0 -0 -0 -0 -0 0
0 -0 -0 -0 -0 0 0 0 -0 -0 -0 -0 -0 -0 0 0 -0 -0 -0 -0 -0 -0 -0 -0 -0 -0 -0 -0 0 0 0 0 0 0 0 0 0 0 0 0 0 0 0 0 0 -0 -0 -0 0
0 0 -0 0 0 -0 0 0 0 -0 -0 -0 -0 -0 -0 0 -0 0 -0 -0 -0 -0 -0 -0 -0 -0 -0 -0 0 0 0 0 0 0 0 0 0 0 0 0 0 0 0 0 0 0 0 0 0
0 0 0 0 -0 0 0 0 0 0 -0 -0 -0 -0 -0 -0 -0 0 0 -0 -0 -0 -0 -0 -0 -0 -0 -0 0 0 -0 0 0 0 0 0 0 0 0 0 0 0 0 0 0 0 0 0 0
0 0 0 0 0 0 0 0 0 0 -0 -0 -0 -0 -0 -0 0 -0 0 0 -0 -0 -0 -0 -0 -0 -0 -0 0 0 0 0 0 0 0 0 0 0 0 0 0 0 0 0 0 0 0 0 0
0 0 0 0 0 0 0 0 0 0 0 -0 -0 -0 -0 -0 -0 0 0 0 0 0 -0 -0 -0 -0 -0 0 0 0 0 0 0 0 0 0 0 0 0 0 0 0 0 0 0 0 0 0 0
0 0 0 0 0 0 0 0 0 0 -0 -0 -0 -0 -0 -0 0 0 0 0 0 0 -0 -0 -0 -0 -0 0 0 0 0 0 0 0 0 0 0 0 0 0 0 0 0 0 0 0 0 0 0
0 0 0 0 0 0 0 0 0 0 0 0 0 0 -0 -0 -0 -0 -0 -0 0 -0 -0 0 0 -0 -0 0 0 0 0 0 0 0 0 0 0 0 0 0 0 0 0 0 0 0 0 0 0
0 0 0 0 0 0 0 0 0 0 0 0 0 0 0 -0 -0 -0 0 0 0 -0 0 -0 0 0 0 0 0 0 0 0 0 0 0 0 0 0 0 0 0 0 0 0 0 0 0 0 0
0 0 0 0 0 0 0 0 0 0 0 -0 -0 0 0 0 0 0 0 0 0 0 0 0 0 0 0 0 0 0 0 0 0 0 0 0 0 0 0 0 0 0 0 0 0 0 0 0 0
0 0 0 0 0 0 0 0 0 0 0 0 0 0 0 -0 -0 0 0 0 0 0 0 0 0 0 0 0 0 0 0 0 0 0 0 0 0 0 0 0 0 0 0 0 0 0 0 0 0
0 0 0 0 0 0 0 0 0 0 0 0 0 0 0 1 0 0 0 0 0 0 0 0 0 0 0 0 0 0 0 0 0 0 0 0 0 0 0 0 0 0 0 -0 0 0 0 0 0
0 0 0 0 0 0 0 0 0 0 -0 0 0 0 0 0 0 0 0 0 0 0 0 0 0 0 0 0 1 1 1 1 0 0 0 0 0 0 0 0 0 0 0 0 0 0 0 0 0
0 0 0 0 0 0 0 0 0 0 0 0 0 0 0 0 0 0 0 0 0 0 0 0 0 0 0 1 2 2 1 0 0 0 0 0 0 0 0 0 0 0 0 0 0 0 0 0 0
0 0 0 0 0 0 0 0 0 0 0 0 -0 0 0 0 0 0 0 0 0 0 0 0 0 1 1 1 0 0 0 0 0 0 0 -0 0 0 0 0 0 0 0 0 0 0 0 0 0
0 0 0 0 0 0 0 0 0 0 0 0 0 0 -0 -0 -0 -0 -0 -0 -0 0 0 0 0 0 0 0 0 0 0 0 0 -0 0 -0 0 0 0 0 0 0 0 0 0 0 0 0 0
0 0 0 0 0 0 0 0 0 0 0 -0 0 0 0 0 -0 -0 -0 0 0 0 0 0 -0 0 0 0 0 0 0 0 0 0 0 0 0 0 0 0 0 0 -0 0 0 0 0 0 0
Wind_Speed_500mb
3 5 9 7 8 9 7 6 4 4 7 4 32 8 12 8 1 6 44 43 42 42 38 36 31 28 27 27 26 23 20 20 21 20 19 18 17 17 17 15 15 16 23 23 20 21 24 22 21
3 5 6 6 9 9 9 3 5 4 27 44 27 18 7 5 8 31 52 43 45 41 40 38 33 30 30 29 26 22 20 20 20 19 20 19 18 17 17 18 16 17 23 23 22 24 24 23 22
1 2 1 7 6 5 7 1 4 16 37 8 14 16 6 6 21 56 52 40 53 45 42 38 34 33 33 30 25 21 20 20 19 20 22 22 21 20 18 18 18 20 22 23 24 25 23 21 20
4 3 3 5 3 9 6 5 18 13 13 5 29 12 13 9 46 39 45 46 50 48 44 39 35 35 33 27 22 20 21 19 21 24 25 24 23 24 23 20 19 21 24 24 25 25 23 21 20
5 1 7 4 7 8 10 13 28 5 3 12 11 8 11 31 30 37 43 48 47 49 45 39 36 34 30 25 21 20 21 20 22 27 30 28 27 25 25 26 21 19 22 25 26 24 23 22 20
2 5 7 4 7 7 11 11 21 9 15 17 19 15 8 26 38 38 36 40 45 45 45 39 35 33 30 26 22 21 19 19 24 30 31 31 30 31 27 24 25 21 20 22 23 23 23 23 20
8 7 6 4 6 10 9 22 26 14 21 5 40 8 13 48 42 30 31 40 42 43 42 38 35 33 29 25 23 21 19 19 25 28 32 36 40 38 32 27 24 26 20 21 21 20 21 21 21
3 7 2 4 2 8 8 7 22 16 6 34 35 13 16 57 45 36 37 40 38 39 39 37 35 32 30 26 25 22 21 21 27 28 30 33 35 34 32 29 29 27 28 26 25 24 25 22 19
5 8 3 8 3 3 8 7 26 9 31 18 29 20 19 63 54 47 48 46 41 41 41 37 34 32 30 28 26 24 22 23 27 25 24 23 25 28 30 34 32 27 26 25 26 27 28 19 16
9 7 17 10 8 2 4 6 22 13 27 8 31 11 56 68 59 54 53 47 42 41 45 40 35 33 32 31 28 25 23 24 27 25 22 17 18 20 21 27 28 28 27 27 27 28 23 11 4
10 10 8 8 17 32 38 20 24 22 12 23 44 51 77 69 61 53 49 43 35 35 40 42 39 35 33 32 29 27 25 26 29 26 22 16 14 11 13 19 21 21 19 18 18 14 20 9 3
3 14 12 12 26 24 21 32 27 42 19 37 40 63 77 71 68 60 54 53 47 41 29 38 42 39 35 33 29 23 28 27 32 29 26 22 18 13 12 14 17 18 15 16 14 10 16 13 5
8 9 14 39 47 49 21 39 20 29 17 30 50 74 73 74 68 61 50 50 50 46 39 34 38 36 39 36 33 25 26 26 27 30 24 21 20 18 15 13 13 15 17 17 20 9 13 11 5
9 9 33 38 48 15 12 13 29 25 41 49 68 78 77 75 74 68 63 60 62 50 45 41 40 36 37 44 35 29 28 27 27 29 22 25 21 17 17 13 15 19 16 17 21 13 9 14 12
8 11 17 9 7 5 44 8 18 50 55 61 69 78 79 73 73 71 63 64 61 58 49 49 46 44 42 43 39 38 33 33 33 29 28 25 25 20 18 17 20 23 23 18 17 18 15 17 17
7 9 7 8 2 10 8 14 12 38 62 62 68 69 75 78 70 65 64 63 61 61 62 54 54 52 48 47 43 43 40 39 39 35 32 33 27 23 21 25 23 22 25 25 20 22 21 15 24
12 4 6 17 9 6 6 9 8 45 47 49 58 68 78 80 77 68 67 65 70 65 65 64 63 61 56 53 51 49 47 48 41 42 39 35 33 28 24 26 25 28 28 28 26 26 27 23 28
8 4 6 10 7 9 12 15 15 59 57 54 59 68 77 84 92 80 71 68 70 69 64 69 69 67 62 58 57 56 56 55 50 45 45 38 37 34 34 29 26 30 31 29 36 33 33 34 28
4 2 7 12 8 7 13 10 21 51 43 43 50 66 70 89 83 82 69 70 73 80 77 76 77 76 75 72 68 68 68 64 61 56 52 48 44 41 40 36 31 32 32 38 40 40 40 43 35
5 4 12 16 10 4 16 17 15 35 62 72 66 63 75 81 79 83 83 69 79 86 89 87 86 86 83 80 74 74 68 68 69 68 65 61 57 50 45 40 42 32 36 42 40 40 40 43 42
6 9 11 16 13 8 6 13 9 7 12 37 55 68 67 80 92 88 86 80 76 87 96 99 94 93 89 84 85 84 80 78 76 77 77 68 60 54 51 48 49 46 46 43 49 47 51 46 40
9 19 19 11 6 8 7 8 11 10 34 24 43 57 72 81 81 83 91 85 85 85 94 99 99 101 98 93 92 92 88 82 77 71 74 71 63 59 59 56 52 49 50 53 46 54 47 43 38
22 8 14 10 13 6 13 8 12 4 24 37 53 61 84 85 78 77 83 88 87 87 91 98 102 104 103 101 99 96 92 85 74 71 69 67 67 63 68 70 61 51 62 61 58 52 56 59 54
2 10 12 8 7 7 6 9 9 13 19 23 46 77 75 58 46 47 54 60 72 74 80 97 104 113 113 108 107 104 96 88 76 76 69 65 65 64 63 63 70 62 59 63 68 62 67 51 57
12 12 7 8 9 9 7 9 4 12 16 20 24 43 14 11 18 30 38 46 52 59 67 82 95 102 110 109 105 104 97 87 85 80 75 61 62 64 65 61 58 58 48 50 53 52 43 50 35
3 15 12 9 7 7 5 8 9 15 25 44 44 55 52 55 38 21 12 19 34 46 52 60 69 73 76 80 87 82 81 75 60 50 70 59 58 51 45 46 50 44 37 35 48 48 40 40 37
7 6 8 15 6 5 4 7 3 18 22 27 35 50 42 39 35 27 24 31 26 8 20 38 51 55 62 49 59 60 64 52 20 18 49 54 51 37 42 29 25 24 27 49 40 28 23 18 18
11 13 8 7 8 5 7 6 3 15 16 16 14 21 27 29 28 28 30 27 23 21 23 22 23 23 22 29 39 45 42 20 5 56 51 43 16 41 26 20 19 24 34 27 18 13 12 18 19
5 5 13 10 9 10 7 3 10 9 12 16 26 23 24 30 37 37 33 33 31 32 35 34 25 8 11 20 41 44 22 23 67 50 48 31 23 23 15 16 16 16 15 14 20 22 23 16 14
10 7 10 11 7 5 8 4 6 10 13 14 23 35 40 44 43 39 39 36 38 42 45 47 36 34 26 21 22 20 29 34 47 43 27 13 13 12 19 29 28 27 29 25 18 14 18 20 12
Wind_Direction_500mb
6 355 352 3 48 54 325 331 220 203 56 121 155 177 151 54 127 195 148 162 162 162 158 154 153 149 143 141 138 131 118 108 97 94 88 80 78 81 87 97 114 117 138 135 133 138 133 132 130
351 36 344 46 78 46 302 332 310 191 132 113 110 105 46 92 116 139 153 160 170 162 159 156 155 151 149 149 143 130 113 103 99 93 86 78 77 81 84 89 95 109 132 141 132 135 133 134 136
165 181 127 102 110 146 233 20 80 146 143 158 121 95 100 131 142 147 160 156 168 162 159 159 157 156 157 150 140 128 112 102 99 90 81 76 71 74 83 88 92 102 117 130 131 131 130 130 131
168 195 107 79 335 247 245 72 138 136 107 96 109 67 82 347 141 148 158 158 166 159 161 163 161 160 155 147 140 127 114 109 98 92 89 79 75 76 79 88 91 101 113 120 127 130 126 128 132
189 51 48 25 265 266 271 160 170 224 102 141 111 116 89 149 146 149 155 161 166 163 164 165 162 160 155 146 141 131 120 113 112 109 94 84 82 82 81 81 92 99 108 120 125 126 125 126 134
146 97 56 280 265 265 275 193 135 149 139 162 122 106 115 177 162 154 158 165 172 169 167 168 163 161 158 152 152 138 129 128 126 112 93 84 87 89 85 86 87 99 114 120 127 130 131 136 135
130 88 213 246 293 318 295 148 136 167 155 180 141 80 141 160 157 151 163 170 173 171 172 171 167 167 163 163 159 149 143 141 130 119 100 91 90 88 89 96 101 99 112 126 132 130 124 138 139
202 91 349 256 265 272 274 147 152 147 227 154 153 151 174 165 156 149 155 167 172 176 181 177 175 173 172 171 170 159 156 150 138 129 113 100 101 94 85 98 114 113 116 129 135 135 131 140 140
180 60 282 245 228 328 283 118 174 170 159 166 190 197 187 160 163 158 158 162 171 182 187 186 184 179 180 182 179 171 168 157 153 146 130 128 113 110 98 103 105 107 108 118 130 133 134 143 139
128 140 215 221 194 275 344 349 168 133 183 233 196 191 160 167 170 169 170 172 179 188 189 193 192 190 189 191 188 183 180 168 163 147 150 135 134 130 123 121 116 119 115 110 121 133 138 143 129
173 203 228 292 282 273 275 224 175 148 240 217 176 158 167 173 179 181 182 182 175 170 187 195 198 199 199 198 192 190 189 184 175 167 157 164 163 163 154 140 146 143 143 145 158 159 172 175 351
274 259 250 241 286 267 239 242 194 168 242 210 192 173 175 183 185 191 195 194 190 186 181 192 199 204 206 204 198 192 200 195 191 179 180 188 200 180 153 162 181 176 174 186 188 205 192 191 234
197 259 290 302 306 301 257 188 148 189 193 169 170 170 180 189 194 198 204 204 200 200 194 190 196 205 210 202 198 203 202 204 195 195 194 192 187 192 197 194 201 200 206 205 205 208 206 213 172
224 274 296 305 309 279 120 118 150 195 174 166 172 177 185 194 199 204 210 213 210 210 209 203 205 207 211 207 211 216 204 202 202 203 199 202 203 206 213 228 214 210 225 227 220 218 185 204 231
280 319 321 289 350 65 130 61 218 192 175 171 180 186 190 194 203 208 214 220 218 217 214 216 215 214 216 216 222 219 215 213 219 214 211 215 219 229 234 237 232 225 237 239 232 228 226 231 226
3 59 6 272 84 156 50 226 256 185 171 179 188 192 200 202 201 211 219 222 224 224 219 222 222 223 227 226 227 227 222 226 227 225 222 224 228 234 243 258 257 239 231 247 247 247 247 255 236
4 223 251 314 105 99 76 269 177 182 194 190 191 199 203 207 211 210 216 226 229 229 229 224 225 230 235 236 233 235 232 233 236 228 228 232 236 239 246 261 253 234 237 237 243 250 239 241 246
189 219 292 258 269 122 182 231 193 189 198 202 200 203 207 210 212 211 211 221 230 230 235 234 233 236 238 240 236 234 235 236 238 240 235 235 243 240 240 248 244 235 239 250 239 245 248 245 259
141 215 265 277 255 346 277 236 205 198 210 212 209 209 214 215 216 216 213 215 225 230 234 234 235 239 235 233 234 232 236 234 236 241 247 243 243 240 240 246 248 243 258 245 243 252 255 254 252
161 261 273 286 301 109 295 304 285 189 207 206 207 214 219 226 223 219 217 217 222 231 233 235 237 238 239 235 237 238 243 245 248 248 248 246 240 237 239 245 249 252 255 253 248 247 259 256 254
219 202 245 218 349 295 341 314 309 325 233 224 230 227 228 230 228 226 221 222 226 229 233 237 238 239 238 238 235 236 237 238 240 240 243 240 240 239 243 247 251 246 255 249 249 257 265 258 257
259 203 241 244 92 235 59 272 292 234 230 242 244 239 236 239 241 240 234 230 230 239 236 238 242 240 239 237 237 237 239 240 238 242 242 241 241 240 240 242 247 253 266 263 265 259 252 254 267
235 166 219 197 158 120 351 71 267 346 242 239 248 246 243 238 244 246 247 243 242 242 242 243 245 246 244 240 241 242 242 244 248 245 243 240 239 241 246 246 240 238 280 269 275 273 257 243 246
57 114 46 67 101 56 257 125 360 360 325 288 262 252 250 274 288 279 263 263 258 256 252 251 247 247 245 244 243 243 244 247 250 244 240 238 238 241 243 247 249 247 275 266 266 279 261 253 254
99 71 9 11 16 202 163 86 145 339 360 5 23 44 47 245 267 259 254 257 264 259 257 258 258 252 250 246 245 242 244 251 257 253 245 239 240 237 249 255 254 270 253 267 272 277 278 259 248
165 138 144 172 184 255 313 74 5 18 26 47 50 70 76 76 63 43 360 294 275 266 254 252 258 263 260 256 253 250 247 247 257 283 267 244 246 248 260 264 265 252 240 262 277 274 269 263 256
183 92 168 103 19 63 274 9 100 31 24 33 35 57 53 49 65 66 64 62 59 50 260 260 263 273 273 253 246 241 243 239 244 316 355 250 244 265 278 258 231 227 253 289 276 256 263 258 213
139 155 79 18 128 202 331 84 322 348 338 325 29 33 44 39 50 58 55 56 51 38 24 350 325 305 243 230 239 241 220 186 355 356 355 357 286 269 235 251 261 270 272 255 257 228 216 172 159
69 97 54 114 123 157 148 275 343 312 309 305 331 21 41 56 69 73 74 69 52 41 35 41 55 94 174 199 198 195 162 323 322 315 298 284 285 247 243 258 259 121 128 148 138 137 129 127 126
108 136 124 123 217 92 126 246 308 293 312 338 26 42 52 58 70 70 62 53 49 46 43 48 64 78 85 115 164 296 321 250 258 264 260 202 184 229 230 136 101 101 106 111 102 111 111 112 122
Wind_Speed_850mb
3 5 9 7 8 9 7 6 4 4 7 4 32 8 12 8 1 6 44 43 42 42 38 36 31 28 27 27 26 23 20 20 21 20 19 18 17 17 17 15 15 16 23 23 20 21 24 22 21
3 5 6 6 9 9 9 3 5 4 27 44 27 18 7 5 8 31 52 43 45 41 40 38 33 30 30 29 26 22 20 20 20 19 20 19 18 17 17 18 16 17 23 23 22 24 24 23 22
1 2 1 7 6 5 7 1 4 16 37 8 14 16 6 6 21 56 52 40 53 45 42 38 34 33 33 30 25 21 20 20 19 20 22 22 21 20 18 18 18 20 22 23 24 25 23 21 20
4 3 3 5 3 9 6 5 18 13 13 5 29 12 13 9 46 39 45 46 50 48 44 39 35 35 33 27 22 20 21 19 21 24 25 24 23 24 23 20 19 21 24 24 25 25 23 21 20
5 1 7 4 7 8 10 13 28 5 3 12 11 8 11 31 30 37 43 48 47 49 45 39 36 34 30 25 21 20 21 20 22 27 30 28 27 25 25 26 21 19 22 25 26 24 23 22 20
2 5 7 4 7 7 11 11 21 9 15 17 19 15 8 26 38 38 36 40 45 45 45 39 35 33 30 26 22 21 19 19 24 30 31 31 30 31 27 24 25 21 20 22 23 23 23 23 20
8 7 6 4 6 10 9 22 26 14 21 5 40 8 13 48 42 30 31 40 42 43 42 38 35 33 29 25 23 21 19 19 25 28 32 36 40 38 32 27 24 26 20 21 21 20 21 21 21
3 7 2 4 2 8 8 7 22 16 6 34 35 13 16 57 45 36 37 40 38 39 39 37 35 32 30 26 25 22 21 21 27 28 30 33 35 34 32 29 29 27 28 26 25 24 25 22 19
5 8 3 8 3 3 8 7 26 9 31 18 29 20 19 63 54 47 48 46 41 41 41 37 34 32 30 28 26 24 22 23 27 25 24 23 25 28 30 34 32 27 26 25 26 27 28 19 16
9 7 17 10 8 2 4 6 22 13 27 8 31 11 56 68 59 54 53 47 42 41 45 40 35 33 32 31 28 25 23 24 27 25 22 17 18 20 21 27 28 28 27 27 27 28 23 11 4
10 10 8 8 17 32 38 20 24 22 12 23 44 51 77 69 61 53 49 43 35 35 40 42 39 35 33 32 29 27 25 26 29 26 22 16 14 11 13 19 21 21 19 18 18 14 20 9 3
3 14 12 12 26 24 21 32 27 42 19 37 40 63 77 71 68 60 54 53 47 41 29 38 42 39 35 33 29 23 28 27 32 29 26 22 18 13 12 14 17 18 15 16 14 10 16 13 5
8 9 14 39 47 49 21 39 20 29 17 30 50 74 73 74 68 61 50 50 50 46 39 34 38 36 39 36 33 25 26 26 27 30 24 21 20 18 15 13 13 15 17 17 20 9 13 11 5
9 9 33 38 48 15 12 13 29 25 41 49 68 78 77 75 74 68 63 60 62 50 45 41 40 36 37 44 35 29 28 27 27 29 22 25 21 17 17 13 15 19 16 17 21 13 9 14 12
8 11 17 9 7 5 44 8 18 50 55 61 69 78 79 73 73 71 63 64 61 58 49 49 46 44 42 43 39 38 33 33 33 29 28 25 25 20 18 17 20 23 23 18 17 18 15 17 17
7 9 7 8 2 10 8 14 12 38 62 62 68 69 75 78 70 65 64 63 61 61 62 54 54 52 48 47 43 43 40 39 39 35 32 33 27 23 21 25 23 22 25 25 20 22 21 15 24
12 4 6 17 9 6 6 9 8 45 47 49 58 68 78 80 77 68 67 65 70 65 65 64 63 61 56 53 51 49 47 48 41 42 39 35 33 28 24 26 25 28 28 28 26 26 27 23 28
8 4 6 10 7 9 12 15 15 59 57 54 59 68 77 84 92 80 71 68 70 69 64 69 69 67 62 58 57 56 56 55 50 45 45 38 37 34 34 29 26 30 31 29 36 33 33 34 28
4 2 7 12 8 7 13 10 21 51 43 43 50 66 70 89 83 82 69 70 73 80 77 76 77 76 75 72 68 68 68 64 61 56 52 48 44 41 40 36 31 32 32 38 40 40 40 43 35
5 4 12 16 10 4 16 17 15 35 62 72 66 63 75 81 79 83 83 69 79 86 89 87 86 86 83 80 74 74 68 68 69 68 65 61 57 50 45 40 42 32 36 42 40 40 40 43 42
6 9 11 16 13 8 6 13 9 7 12 37 55 68 67 80 92 88 86 80 76 87 96 99 94 93 89 84 85 84 80 78 76 77 77 68 60 54 51 48 49 46 46 43 49 47 51 46 40
9 19 19 11 6 8 7 8 11 10 34 24 43 57 72 81 81 83 91 85 85 85 94 99 99 101 98 93 92 92 88 82 77 71 74 71 63 59 59 56 52 49 50 53 46 54 47 43 38
22 8 14 10 13 6 13 8 12 4 24 37 53 61 84 85 78 77 83 88 87 87 91 98 102 104 103 101 99 96 92 85 74 71 69 67 67 63 68 70 61 51 62 61 58 52 56 59 54
2 10 12 8 7 7 6 9 9 13 19 23 46 77 75 58 46 47 54 60 72 74 80 97 104 113 113 108 107 104 96 88 76 76 69 65 65 64 63 63 70 62 59 63 68 62 67 51 57
12 12 7 8 9 9 7 9 4 12 16 20 24 43 14 11 18 30 38 46 52 59 67 82 95 102 110 109 105 104 97 87 85 80 75 61 62 64 65 61 58 58 48 50 53 52 43 50 35
3 15 12 9 7 7 5 8 9 15 25 44 44 55 52 55 38 21 12 19 34 46 52 60 69 73 76 80 87 82 81 75 60 50 70 59 58 51 45 46 50 44 37 35 48 48 40 40 37
7 6 8 15 6 5 4 7 3 18 22 27 35 50 42 39 35 27 24 31 26 8 20 38 51 55 62 49 59 60 64 52 20 18 49 54 51 37 42 29 25 24 27 49 40 28 23 18 18
11 13 8 7 8 5 7 6 3 15 16 16 14 21 27 29 28 28 30 27 23 21 23 22 23 23 22 29 39 45 42 20 5 56 51 43 16 41 26 20 19 24 34 27 18 13 12 18 19
5 5 13 10 9 10 7 3 10 9 12 16 26 23 24 30 37 37 33 33 31 32 35 34 25 8 11 20 41 44 22 23 67 50 48 31 23 23 15 16 16 16 15 14 20 22 23 16 14
10 7 10 11 7 5 8 4 6 10 13 14 23 35 40 44 43 39 39 36 38 42 45 47 36 34 26 21 22 20 29 34 47 43 27 13 13 12 19 29 28 27 29 25 18 14 18 20 12
Wind_Direction_850mb
6 355 352 3 48 54 325 331 220 203 56 121 155 177 151 54 127 195 148 162 162 162 158 154 153 149 143 141 138 131 118 108 97 94 88 80 78 81 87 97 114 117 138 135 133 138 133 132 130
351 36 344 46 78 46 302 332 310 191 132 113 110 105 46 92 116 139 153 160 170 162 159 156 155 151 149 149 143 130 113 103 99 93 86 78 77 81 84 89 95 109 132 141 132 135 133 134 136
165 181 127 102 110 146 233 20 80 146 143 158 121 95 100 131 142 147 160 156 168 162 159 159 157 156 157 150 140 128 112 102 99 90 81 76 71 74 83 88 92 102 117 130 131 131 130 130 131
168 195 107 79 335 247 245 72 138 136 107 96 109 67 82 347 141 148 158 158 166 159 161 163 161 160 155 147 140 127 114 109 98 92 89 79 75 76 79 88 91 101 113 120 127 130 126 128 132
189 51 48 25 265 266 271 160 170 224 102 141 111 116 89 149 146 149 155 161 166 163 164 165 162 160 155 146 141 131 120 113 112 109 94 84 82 82 81 81 92 99 108 120 125 126 125 126 134
146 97 56 280 265 265 275 193 135 149 139 162 122 106 115 177 162 154 158 165 172 169 167 168 163 161 158 152 152 138 129 128 126 112 93 84 87 89 85 86 87 99 114 120 127 130 131 136 135
130 88 213 246 293 318 295 148 136 167 155 180 141 80 141 160 157 151 163 170 173 171 172 171 167 167 163 163 159 149 143 141 130 119 100 91 90 88 89 96 101 99 112 126 132 130 124 138 139
202 91 349 256 265 272 274 147 152 147 227 154 153 151 174 165 156 149 155 167 172 176 181 177 175 173 172 171 170 159 156 150 138 129 113 100 101 94 85 98 114 113 116 129 135 135 131 140 140
180 60 282 245 228 328 283 118 174 170 159 166 190 197 187 160 163 158 158 162 171 182 187 186 184 179 180 182 179 171 168 157 153 146 130 128 113 110 98 103 105 107 108 118 130 133 134 143 139
128 140 215 221 194 275 344 349 168 133 183 233 196 191 160 167 170 169 170 172 179 188 189 193 192 190 189 191 188 183 180 168 163 147 150 135 134 130 123 121 116 119 115 110 121 133 138 143 129
173 203 228 292 282 273 275 224 175 148 240 217 176 158 167 173 179 181 182 182 175 170 187 195 198 199 199 198 192 190 189 184 175 167 157 164 163 163 154 140 146 143 143 145 158 159 172 175 351
274 259 250 241 286 267 239 242 194 168 242 210 192 173 175 183 185 191 195 194 190 186 181 192 199 204 206 204 198 192 200 195 191 179 180 188 200 180 153 162 181 176 174 186 188 205 192 191 234
197 259 290 302 306 301 257 188 148 189 193 169 170 170 180 189 194 198 204 204 200 200 194 190 196 205 210 202 198 203 202 204 195 195 194 192 187 192 197 194 201 200 206 205 205 208 206 213 172
224 274 296 305 309 279 120 118 150 195 174 166 172 177 185 194 199 204 210 213 210 210 209 203 205 207 211 207 211 216 204 202 202 203 199 202 203 206 213 228 214 210 225 227 220 218 185 204 231
280 319 321 289 350 65 130 61 218 192 175 171 180 186 190 194 203 208 214 220 218 217 214 216 215 214 216 216 222 219 215 213 219 214 211 215 219 229 234 237 232 225 237 239 232 228 226 231 226
3 59 6 272 84 156 50 226 256 185 171 179 188 192 200 202 201 211 219 222 224 224 219 222 222 223 227 226 227 227 222 226 227 225 222 224 228 234 243 258 257 239 231 247 247 247 247 255 236
4 223 251 314 105 99 76 269 177 182 194 190 191 199 203 207 211 210 216 226 229 229 229 224 225 230 235 236 233 235 232 233 236 228 228 232 236 239 246 261 253 234 237 237 243 250 239 241 246
189 219 292 258 269 122 182 231 193 189 198 202 200 203 207 210 212 211 211 221 230 230 235 234 233 236 238 240 236 234 235 236 238 240 235 235 243 240 240 248 244 235 239 250 239 245 248 245 259
141 215 265 277 255 346 277 236 205 198 210 212 209 209 214 215 216 216 213 215 225 230 234 234 235 239 235 233 234 232 236 234 236 241 247 243 243 240 240 246 248 243 258 245 243 252 255 254 252
161 261 273 286 301 109 295 304 285 189 207 206 207 214 219 226 223 219 217 217 222 231 233 235 237 238 239 235 237 238 243 245 248 248 248 246 240 237 239 245 249 252 255 253 248 247 259 256 254
219 202 245 218 349 295 341 314 309 325 233 224 230 227 228 230 228 226 221 222 226 229 233 237 238 239 238 238 235 236 237 238 240 240 243 240 240 239 243 247 251 246 255 249 249 257 265 258 257
259 203 241 244 92 235 59 272 292 234 230 242 244 239 236 239 241 240 234 230 230 239 236 238 242 240 239 237 237 237 239 240 238 242 242 241 241 240 240 242 247 253 266 263 265 259 252 254 267
235 166 219 197 158 120 351 71 267 346 242 239 248 246 243 238 244 246 247 243 242 242 242 243 245 246 244 240 241 242 242 244 248 245 243 240 239 241 246 246 240 238 280 269 275 273 257 243 246
57 114 46 67 101 56 257 125 360 360 325 288 262 252 250 274 288 279 263 263 258 256 252 251 247 247 245 244 243 243 244 247 250 244 240 238 238 241 243 247 249 247 275 266 266 279 261 253 254
99 71 9 11 16 202 163 86 145 339 360 5 23 44 47 245 267 259 254 257 264 259 257 258 258 252 250 246 245 242 244 251 257 253 245 239 240 237 249 255 254 270 253 267 272 277 278 259 248
165 138 144 172 184 255 313 74 5 18 26 47 50 70 76 76 63 43 360 294 275 266 254 252 258 263 260 256 253 250 247 247 257 283 267 244 246 248 260 264 265 252 240 262 277 274 269 263 256
183 92 168 103 19 63 274 9 100 31 24 33 35 57 53 49 65 66 64 62 59 50 260 260 263 273 273 253 246 241 243 239 244 316 355 250 244 265 278 258 231 227 253 289 276 256 263 258 213
139 155 79 18 128 202 331 84 322 348 338 325 29 33 44 39 50 58 55 56 51 38 24 350 325 305 243 230 239 241 220 186 355 356 355 357 286 269 235 251 261 270 272 255 257 228 216 172 159
69 97 54 114 123 157 148 275 343 312 309 305 331 21 41 56 69 73 74 69 52 41 35 41 55 94 174 199 198 195 162 323 322 315 298 284 285 247 243 258 259 121 128 148 138 137 129 127 126
108 136 124 123 217 92 126 246 308 293 312 338 26 42 52 58 70 70 62 53 49 46 43 48 64 78 85 115 164 296 321 250 258 264 260 202 184 229 230 136 101 101 106 111 102 111 111 112 122